[Iaude] MPEC F94: 2000 FP10 [a=1.44,e=0.24,i=23.6,H=21.0]

mpec at mpcdb1.cfa.harvard.edu mpec at mpcdb1.cfa.harvard.edu
Tue Mar 26 17:27:17 EDT 2019


M.P.E.C. 2019-F94                                Issued 2019 Mar. 26, 21:24 UT
 
     The Minor Planet Electronic Circulars contain information on unusual
         minor planets and routine data on comets.  They are published
    on behalf of Division F of the International Astronomical Union by the
          Minor Planet Center, Smithsonian Astrophysical Observatory,
                          Cambridge, MA 02138, U.S.A.

             Prepared using the Tamkin Foundation Computer Network

                              MPC at CFA.HARVARD.EDU
            URL https://www.minorplanetcenter.net/    ISSN 1523-6714


                                   2000 FP10
 
                           Revision to MPEC 2000-G10
 
Additional Observations:
     K00F10P  C2011 10 24.51212403 03 05.025+52 45 46.63         21.1 GVEF094F51
     K00F10P  C2011 10 24.52434603 03 03.032+52 46 06.82         22.0 GVEF094F51
     K00F10P  C2011 11 12.41570001 52 57.082+59 07 04.95         20.2 GVEF094F51
     K00F10P  C2016 08 27.50926501 20 30.012-00 38 54.10         22.0 GVEF094F51
     K00F10P  C2016 08 27.52123501 20 29.269-00 38 49.29         23.3 GVEF094F51
     K00F10P  C2016 08 27.55897801 20 26.878-00 38 32.50         22.4 GVEF094F51
     K00F10P  C2016 08 27.57296601 20 26.008-00 38 26.39         23.4 GVEF094F51
     K00F10P  C2016 09 26.44571900 26 28.165+02 53 27.57         21.0 GVEF094F51
     K00F10P  C2016 09 26.45842800 26 26.274+02 53 32.45         21.0 GVEF094F51
     K00F10P  C2016 09 26.47112500 26 24.426+02 53 37.38         21.6 GVEF094F51
     K00F10P  C2016 09 26.48386200 26 22.521+02 53 42.59         21.7 GVEF094F51
     K00F10P  C2016 09 30.44183500 16 50.584+03 20 44.94         21.3 GVEF094F51
     K00F10P  C2016 09 30.45321200 16 48.852+03 20 49.89         21.8 GVEF094F51
     K00F10P  C2016 10 09.36493323 55 47.919+04 20 12.03         21.9 GVEF094F51
     K00F10P  C2016 10 09.37707823 55 46.229+04 20 16.71         22.5 GVEF094F51
     K00F10P  C2016 10 09.38922023 55 44.513+04 20 21.76         22.1 GVEF094F51
     K00F10P  C2016 10 29.25569423 20 21.254+06 29 18.30         22.5 GVEF094F51
     K00F10P  C2016 10 29.27798723 20 19.511+06 29 27.43         22.5 GVEF094F51
     K00F10P  C2019 03 26.16334 08 24 50.43 +42 05 39.6          19.6 GVEF094G96
     K00F10P  C2019 03 26.16940 08 24 50.71 +42 04 55.3          19.9 GVEF094G96
     K00F10P  C2019 03 26.17522 08 24 50.99 +42 04 12.8                VEF094G96
     K00F10P  C2019 03 26.18093 08 24 51.21 +42 03 31.6                VEF094G96
     K00F10P  C2019 03 26.23779 08 24 53.97 +41 56 33.0          19.6 GVEF094I52
     K00F10P  C2019 03 26.23838 08 24 53.99 +41 56 28.4          19.6 GVEF094I52
     K00F10P  C2019 03 26.23897 08 24 54.03 +41 56 24.2          19.5 GVEF094I52
     K00F10P  C2019 03 26.23956 08 24 54.04 +41 56 20.1          19.7 GVEF094I52
     K00F10P  C2019 03 26.28470808 24 56.28 +41 50 44.2          19.4 GVEF094H01
     K00F10P  C2019 03 26.29497408 24 56.85 +41 49 28.0          19.7 GVEF094H01
     K00F10P  C2019 03 26.30118508 24 57.19 +41 48 42.0          19.6 GVEF094H01
     K00F10P  C2019 03 26.30561308 24 57.44 +41 48 09.0          19.6 GVEF094H01
     K00F10P  C2019 03 26.31879 08 24 58.19 +41 46 33.3          19.8 GVEF094I52
     K00F10P  C2019 03 26.31938 08 24 58.27 +41 46 28.5          19.4 GVEF094I52
     K00F10P  C2019 03 26.31996 08 24 58.22 +41 46 24.1          20.2 GVEF094I52
     K00F10P KC2019 03 26.79034 08 25 31.79 +40 49 01.2          19.3 RoEF094K88
     K00F10P KC2019 03 26.79549 08 25 32.05 +40 48 23.2          19.2 RoEF094K88
     K00F10P KC2019 03 26.80064 08 25 32.33 +40 47 45.4          19.3 RoEF094K88
     K00F10P KC2019 03 26.84842 08 25 35.11 +40 41 55.0          19.1 RVEF094K51
     K00F10P KC2019 03 26.85006 08 25 35.20 +40 41 42.9          19.2 RVEF094K51
     K00F10P KC2019 03 26.85171 08 25 35.27 +40 41 30.7          19.4 RVEF094K51
     K00F10P IC2019 03 26.85748708 25 35.50 +40 40 48.4          20.0 GVEF094L01
     K00F10P pC2019 03 26.85857008 25 35.54 +40 40 40.1          19.8 GVEF094L01
     K00F10P KC2019 03 26.86516808 25 35.89 +40 39 51.9          19.8 GVEF094L01
     K00F10P KC2019 03 26.86603208 25 35.98 +40 39 45.5          19.7 GVEF094L01
 
Observer details:
F51 Pan-STARRS 1, Haleakala.  Observers J. Bulger, K. Chambers, T. Lowe,
    E. Magnier, A. Schultz, M. Willman.  Measurers S. Chastel, M. Huber,
    Y. Ramanjooloo, R. Wainscoat, R. Weryk.  1.8-m Ritchey-Chretien + CCD.
G96 Mt. Lemmon Survey.  Observer R. A. Kowalski.  Measurers B. M. Africano,
    E. J. Christensen, G. A. Farneth, D. C. Fuls, A. R. Gibbs, A. D. Grauer,
    H. Groeller, R. A. Kowalski, S. M. Larson, G. J. Leonard, T. A. Pruyne,
    R. L. Seaman, F. C. Shelly.  1.5-m reflector + 10K CCD.
H01 Magdalena Ridge Observatory, Socorro.  Observers W. H. Ryan, E. V. Ryan.
    Measurer W. H. Ryan.  2.4-m f/8.9 Ritchey-Chretien + CCD.
I52 Steward Observatory, Mt. Lemmon Station.  Observer G. J. Leonard.
    Measurers B. M. Africano, E. J. Christensen, G. A. Farneth, D. C. Fuls,
    A. R. Gibbs, A. D. Grauer, H. Groeller, R. A. Kowalski, S. M. Larson,
    G. J. Leonard, T. A. Pruyne, R. L. Seaman, F. C. Shelly.  1.0-m reflector
    + CCD.
K51 Osservatorio del Celado, Castello Tesino.  Observers G. Favero,
    R. Furgoni.  Measurer R. Furgoni.  0.80-m f/4 reflector + CCD.
K88 GINOP-KHK, Piszkesteto.  Observer K. Sarneczky.  0.60-m Schmidt + CCD.
L01 Visnjan Observatory, Tican.  Observers K. Korlevic, J. Mates.  Measurer
    K. Korlevic.  1.0-m f/2.9 reflector + CCD.
 
First and last observations above in comparison with prediction:
Residuals in seconds of arc (or two decimals in degrees), reference and Delta-T
111024 F51 1.31- 0.76-    190326 L01 5.94- 3.23+    MPO 57766   +2.3 day
 
Orbital elements:
2000 FP10                                                Earth MOID = 0.1075 AU
Epoch 2019 Apr. 27.0 TT = JDT 2458600.5                 MPC
M  20.28268              (2000.0)            P               Q
n   0.57002275     Peri.  165.42110     -0.98447108     -0.17191187
a   1.4405929      Node     5.09717     +0.09188380     -0.67711669
e   0.2375928      Incl.   23.57871     +0.14957962     -0.71551331
P   1.73           H   21.0           G   0.15           U   2
Residuals in seconds of arc
000331 691  1.8+  1.3+    000407 608  0.4-  0.1-    190326 G96  0.1+  0.1-
000331 691  0.7+  1.4+    000408 691 (0.1-  2.4-)   190326 G96  0.1+  0.1-
000331 691  0.4+  1.6+    000408 691  0.1+  0.4-    190326 G96  0.1+  0.0
000331 658  0.5+  0.1-    000408 691  0.4+  0.7+    190326 G96  0.4-  0.6+
000331 658  1.1+  0.4+    000429 413  0.3-  0.2+    190326 I52  0.0   0.1-
000331 658  1.2+  1.0-    000429 413  0.4-  0.0     190326 I52  0.1-  0.4-
000331 691  0.6+  1.9+    000430 413  0.3-  0.0     190326 I52  0.1+  0.2-
000331 046  0.1-  1.1-    000430 413  0.5-  0.3-    190326 I52  0.2-  0.0
000331 046  0.7-  0.2-    000430 413  0.2-  0.3-    190326 H01  0.1-  0.1-
000331 046  0.1-  0.9-    111024 F51  0.7-  0.1+    190326 H01  0.0   0.2-
000331 046 (0.9-  2.6+)   111024 F51  0.2-  0.1-    190326 H01  0.0   0.1-
000331 046  0.8-  0.7-    111112 F51  0.0   0.0     190326 H01  0.0   0.2-
000331 046  0.5-  1.4-    160827 F51  0.5-  0.4+    190326 I52  0.4-  0.1-
000401 691  0.2-  0.6-    160827 F51  0.3-  0.0     190326 I52  0.1+  0.6-
000401 691  0.2+  2.0-    160827 F51  0.1-  0.4+    190326 I52  0.8-  0.7-
000401 691  0.6+  0.1+    160827 F51  0.2+  0.4+    190326 K88  0.1-  0.3+
000401 691  0.3-  0.2-    160926 F51  0.2-  0.6+    190326 K88  0.2-  0.2+
000401 691  1.1-  0.5+    160926 F51  0.3-  0.2+    190326 K88  0.0   0.2+
000401 691  0.2-  1.0+    160926 F51  0.1+  0.1-    190326 K51  0.0   0.2-
000402 691  0.0   0.4+    160926 F51  0.2-  0.1-    190326 K51  0.0   0.2-
000402 691  0.0   0.1+    160930 F51  0.0   0.0     190326 K51  0.1-  0.2-
000402 691  0.6+  0.7-    160930 F51  0.5-  0.3+    190326 L01  0.2+  0.2-
000404 704  0.2-  0.1+    161009 F51  0.1+  0.0     190326 L01  0.0   0.5-
000404 704  1.2-  0.4-    161009 F51  0.2+  0.1-    190326 L01  0.1+  0.0
000404 704  0.0   0.4+    161009 F51  0.1-  0.2+    190326 L01  0.6+  0.0
000404 704  0.3-  0.3-    161029 F51  0.1+  0.2-
000407 608  0.5-  0.3-    161029 F51  0.3-  0.1+

Ephemeris:
2000 FP10                a,e,i = 1.44, 0.24, 24                  q = 1.0983
Date    TT    R. A. (2000) Decl.     Delta      r     Elong.  Phase     V
2019 02 24    08 46 45.1 +83 58 25   0.3225  1.1182   105.2    58.6    20.9
...
2019 03 11    08 13 02.1 +68 26 30   0.2590  1.1021   108.2    58.9    20.4
...
2019 03 19    08 17 48.1 +55 48 22   0.2343  1.0986   110.3    58.2    20.1
...
2019 03 25    08 23 35.7 +44 26 07   0.2238  1.0985   111.4    57.7    20.0
2019 03 26    08 24 40.0 +42 25 29   0.2229  1.0987   111.5    57.6    20.0
2019 03 27    08 25 45.7 +40 23 32   0.2222  1.0989   111.6    57.6    20.0
...
2019 04 02    08 32 47.4 +28 00 52   0.2240  1.1016   111.6    57.5    20.0
...
2019 04 10    08 43 12.0 +12 25 12   0.2412  1.1083   110.2    58.0    20.2
...
2019 04 25    09 05 18.8 -09 38 14   0.3079  1.1300   106.0    58.8    20.8

A. U. Tomatic                (C) Copyright 2019 MPC           M.P.E.C. 2019-F94



More information about the Iaude mailing list